TIME,DELAY(SENSOR),PRES,OXYGEN,RAWTEMP,T(OPTODE),TCPHASE,FLUOR,BETA(BETA700),BETA(BETA412),BETA(BETA440),CDOM,C(CSC),ED(ED412.20),ED(ED444.00),ED(ED489.60),ED(ED554.30),LU(LU412.10),LU(LU443.90),LU(LU489.70),LU(LU554.70),COMP,TILTX,TILTY,CHECK
1356490927,5806,898.1199951171875000,35.1966514587402340,562.7191162109375000,4.4015960693359375,56.2810096740722660,54,100,99,78,81,15552,0,0,0,0,2147124205,2147774354,2147576996,2147572132,1218,2,13,19547
1356494523,5808,975.2100219726562000,39.9151306152343750,569.2089843750000000,4.2001380920410160,55.6213798522949200,55,97,100,78,81,15549,0,0,0,0,2147121728,2147773357,2147569746,2147568566,2499,2,13,57391
1356498123,5811,983.9400024414062000,41.6557693481445300,570.6522827148438000,4.1552891731262210,55.3779907226562500,55,99,100,77,81,15550,0,0,0,0,2147124278,2147770450,2147571181,2147573942,3407,2,13,24226
1356501723,5813,992.9099731445312000,40.7914314270019500,570.8109130859375000,4.1503582000732420,55.5053405761718750,55,97,99,78,83,15549,0,0,0,0,2147120402,2147767936,2147579300,2147572397,3444,2,13,27038
1356505323,5808,995.0900268554688000,40.8504409790039060,570.2802124023438000,4.1668548583984375,55.4877891540527340,55,100,100,79,83,15547,0,0,0,0,2147121188,2147772434,2147570340,2147571008,408,3,13,13561
1356508923,5809,1007.0599975585938000,40.5052185058593750,570.1287841796875000,4.1715579032897950,55.5421981811523440,55,99,99,79,83,15550,0,0,0,0,2147122441,2147773193,2147571611,2147569782,279,2,13,21
1356512523,5809,1009.0800170898438000,39.4301490783691400,569.6298217773438000,4.1870651245117190,55.6977081298828100,56,99,100,77,82,15547,0,0,0,0,2147123757,2147767433,2147575936,2147568630,3486,3,13,16309
1356516123,5811,1010.6300048828125000,39.1031303405761700,569.4215698242188000,4.1935348510742190,55.7416801452636700,55,97,100,78,81,15452,0,0,0,0,2147124571,2147767780,2147572900,2147572406,62,3,13,46080
1356519723,5810,1011.4600219726562000,41.1079711914062500,570.7946777343750000,4.1508641242980960,55.4584617614746100,55,98,102,78,81,15455,0,0,0,0,2147121389,2147775085,2147573741,2147572736,563,2,13,18369
1356523323,5808,1001.9000244140625000,40.5712318420410160,571.3867187500000000,4.1324620246887210,55.5452003479003900,55,98,99,79,82,15457,0,0,0,0,2147122715,2147774107,2147577572,2147574390,3317,2,13,28989
1356526923,5811,1000.2100219726562000,41.6741409301757800,572.4268798828125000,4.1001172065734860,55.3968505859375000,55,98,100,78,81,15458,0,0,0,0,2147124452,2147769554,2147573705,2147572425,182,3,13,31605
1356530523,5808,1003.4400024414062000,42.4586296081543000,572.6282958984375000,4.0938549041748050,55.2781181335449200,55,97,100,77,82,15450,0,0,0,0,2147123940,2147772022,2147572736,2147570688,3319,2,13,19862
1356534123,5809,1006.5100097656250000,42.0102195739746100,572.5261230468750000,4.0970339775085450,55.3497390747070300,55,97,101,77,82,15455,0,0,0,0,2147123885,2147769188,2147575460,2147572306,65,3,13,14267
1356537723,5812,1003.0900268554688000,41.8667602539062500,572.7791137695312000,4.0891671180725100,55.3673210144043000,55,100,99,77,82,15456,0,0,0,0,2147122651,2147768521,2147571968,2147571392,3382,2,13,43791
1356541323,5810,1001.6900024414062000,42.2038307189941400,572.9337158203125000,4.0843601226806640,55.3232917785644500,55,97,100,77,83,15457,0,0,0,0,2147125906,2147775853,2147575917,2147571008,3521,2,13,57527
1356544923,5811,1001.5499877929688000,42.0153884887695300,572.7224731445312000,4.0909271240234375,55.3490905761718750,55,99,99,78,82,15458,0,0,0,0,2147123227,2147767478,2147575378,2147572160,216,3,13,24169
1356548523,5808,1001.4400024414062000,41.7384414672851560,572.2102050781250000,4.1068568229675290,55.3802680969238300,54,99,100,79,83,15457,0,0,0,0,2147122212,2147773092,2147579419,2147569764,3433,3,13,7163
1356552123,5809,1003.4899902343750000,41.6836013793945300,572.3906860351562000,4.1012439727783200,55.3905181884765600,55,99,101,77,82,15454,0,0,0,0,2147122861,2147776201,2147581110,2147571081,343,2,13,60732
1356555723,5812,1011.2399902343750000,42.4477081298828100,572.9483032226562000,4.0839037895202640,55.2832489013671900,55,98,100,77,81,15454,0,0,0,0,2147122624,2147769225,2147575158,2147572836,3243,2,13,56223
1356559323,5811,1006.8400268554688000,41.7089004516601560,572.1224975585938000,4.1095829010009770,55.3895492553710940,55,98,102,79,82,15455,0,0,0,0,2147121965,2147776338,2147573723,2147574610,137,3,13,19480
1356562923,5809,1006.6199951171875000,41.2504386901855500,572.3779907226562000,4.1016387939453125,55.4562797546386700,56,97,100,78,82,15456,0,0,0,0,2147125147,2147778258,2147576054,2147573275,113,2,13,11313
1356566523,5810,1009.6900024414062000,41.5253791809082000,572.4622802734375000,4.0990161895751950,55.4146995544433600,55,98,101,78,83,15453,0,0,0,0,2147124809,2147771273,2147579812,2147570267,245,3,13,12777
1356570123,5809,1006.8599853515625000,41.4508094787597660,572.8009033203125000,4.0884881019592285,55.4277305603027340,55,100,100,78,83,15441,0,0,0,0,2147121993,2147775277,2147571867,2147570468,122,3,13,17715
1356573723,5810,1010.1300048828125000,42.3219490051269500,573.1124877929688000,4.0787959098815920,55.3082695007324200,56,99,99,77,82,15440,0,0,0,0,2147123675,2147772854,2147571968,2147570038,3207,2,13,7544
1356577323,5810,1012.9099731445312000,41.8532104492187500,572.5435180664062000,4.0964927673339840,55.3663406372070300,54,98,99,77,83,15440,0,0,0,0,2147122752,2147774436,2147572635,2147570834,194,2,13,5948
1356580923,5812,1011.4699707031250000,41.9665489196777340,572.3906860351562000,4.1012439727783200,55.3463401794433600,55,152,99,78,82,15436,0,0,0,0,2147124699,2147774866,2147574774,2147571894,3324,3,13,63117
1356584523,5809,1014.2600097656250000,41.9060897827148440,572.5880737304688000,4.0951080322265625,55.3652687072753900,54,99,100,77,83,15431,0,0,0,0,2147125110,2147769453,2147576722,2147570048,329,2,13,33253
1356588123,5808,1012.6099853515625000,41.5498809814453100,572.6619262695312000,4.0928101539611820,55.4130592346191400,55,99,99,78,81,15431,0,0,0,0,2147120612,2147765568,2147580617,2147568265,350,3,13,35707
1356591723,5810,1015.9699707031250000,41.6947402954101560,572.4600830078125000,4.0990872383117680,55.3893318176269500,55,99,101,78,82,15439,0,0,0,0,2147124827,2147771730,2147572452,2147569828,94,3,13,33907
1356595323,5808,1017.6099853515625000,41.8330802917480500,572.2692871093750000,4.1050190925598145,55.3663406372070300,54,98,100,78,82,15427,0,0,0,0,2147122834,2147774390,2147572891,2147570761,24,2,13,10764
1356598923,5809,1010.6199951171875000,41.5523681640625000,572.4852294921875000,4.0983071327209470,55.4106788635253900,54,101,100,78,82,15438,0,0,0,0,2147121243,2147776658,2147577316,2147572964,21,3,13,1989
1356602523,5810,1014.0300292968750000,41.7243309020996100,572.6826171875000000,4.0921688079833980,55.3913688659668000,55,97,101,78,81,15438,0,0,0,0,2147123501,2147774326,2147575725,2147571629,3412,3,13,31088
1356606123,5808,1010.7800292968750000,41.7004203796386700,573.0587768554688000,4.0804672241210940,55.3969802856445300,55,101,100,80,83,15438,0,0,0,0,2147123657,2147775250,2147576932,2147568438,3234,3,13,51639
1356609723,5808,1004.4099731445312000,42.1238517761230500,573.1862182617188000,4.0765042304992680,55.3363494873046900,55,98,100,79,82,15437,0,0,0,0,2147124470,2147778203,2147576896,2147568704,2497,2,13,57606
1356613323,5812,1009.2399902343750000,42.1090316772460940,573.2619018554688000,4.0741500854492190,55.3404502868652340,55,98,100,77,82,15435,0,0,0,0,2147122560,2147771062,2147578880,2147571565,81,2,13,13349
1356616923,5809,1009.6799926757812000,41.6941719055175800,573.1928100585938000,4.0763001441955570,55.3971405029296900,56,98,100,78,82,15435,0,0,0,0,2147120886,2147773120,2147582509,2147570422,3476,2,13,53681
1356620523,5811,1012.4000244140625000,41.9507904052734400,572.9165039062500000,4.0848941802978520,55.3603515625000000,55,98,101,79,82,15436,0,0,0,0,2147126016,2147766372,2147572553,2147571684,3559,3,13,22863
1356624123,5811,1006.0499877929688000,41.6031608581543000,572.9572753906250000,4.0836238861083980,55.4076995849609400,55,100,101,79,81,15436,0,0,0,0,2147124370,2147772205,2147575460,2147572059,86,3,13,9385
1356627723,5811,1013.4099731445312000,41.9200096130371100,572.8803710937500000,4.0860137939453125,55.3665084838867200,55,99,100,78,82,15436,0,0,0,0,2147125220,2147771072,2147574729,2147568374,3539,3,13,62320
1356631323,5808,1015.3400268554688000,41.9309310913085940,572.8792724609375000,4.0860500335693360,55.3608703613281250,55,98,100,78,82,15437,0,0,0,0,2147124406,2147772041,2147574573,2147570432,407,2,13,60627
1356634923,5809,1015.5900268554688000,41.6416587829589840,572.8754272460938000,4.0861701965332030,55.4047317504882800,54,102,100,78,83,15434,0,0,0,0,2147120000,2147765229,2147578057,2147570633,3539,3,13,35089
1356635756,5810,1017.4699707031250000,41.7785682678222660,572.8685302734375000,4.0863881111145020,55.3872909545898440,55,100,102,77,82,15435,0,0,0,0,2147121956,2147771291,2147575616,2147571483,131,3,13,62080
